sat.trackr.live / text

‹ back to catalog

STARLINK-34139

NORAD 63975 · 2025-099Z

PAYLOAD ACTIVE UNKNOWN

§ Identity

Operator
Country
US
Launch date
2025-05-13
Launch site
AFETR
Launch vehicle
Mass (kg)
RCS (m²)

Purposes: comms

External: N2YO · Heavens-Above · Gunter

§ Orbital elements

Epoch: 2026-05-25T04:24:46.924416Z

Period
94.27 min
Inclination
42.9970°
Eccentricity
0.0000871
Mean motion
15.27570869 rev/d
Perigee alt
482.5 km
Apogee alt
483.7 km
Semi-major
6,861.2 km
B*
1.1233e-4
RAAN
100.8774°
Arg perigee
219.1066°
Mean anomaly
140.9723°
Rev number
5,898

§ Raw data

STARLINK-341391 63975U 25099Z   26145.18387644  .00002830  00000+0  11233-3 0  99992 63975  42.9970 100.8774 0000871 219.1066 140.9723 15.27570869 58987

JSON: /api/v1/satellites/63975 · /tle

For live sub-satellite position, see the globe view (requires WebGL).

§ Visibility from observer

Set your observer location to see the next 7 days of passes ≥ 10°. The values pass through the URL so the page stays shareable.

No JS? Fill the form by hand. The geolocation button needs JavaScript.